Time,TemperatureF,DewpointF,PressureIn,WindDirection,WindDirectionDegrees,WindSpeedMPH,WindSpeedGustMPH,Humidity,HourlyPrecipIn,Conditions,Clouds,dailyrainin,SoftwareType,DateUTC
2013-01-22 00:02:00,22.0,17.0,-100.00,East,80,3.0,6.0,80,-99.99,,,-99.99,,2013-01-22 08:02:00,
2013-01-22 01:02:00,22.0,18.0,-100.00,SE,140,2.0,3.0,84,-99.99,,,-99.99,,2013-01-22 09:02:00,
2013-01-22 01:11:00,22.0,18.0,-100.00,SE,140,2.0,3.0,84,-99.99,,,-99.99,,2013-01-22 09:11:00,
2013-01-22 02:02:00,22.0,18.0,-100.00,SW,220,1.0,6.0,84,-99.99,,,-99.99,,2013-01-22 10:02:00,
2013-01-22 03:02:00,21.0,16.0,-100.00,ESE,115,3.0,9.0,80,-99.99,,,-99.99,,2013-01-22 11:02:00,
2013-01-22 03:12:00,21.0,16.0,-100.00,ESE,115,3.0,9.0,80,-99.99,,,-99.99,,2013-01-22 11:12:00,
2013-01-22 05:03:00,21.0,16.0,-100.00,East,95,6.0,10.0,80,-99.99,,,-99.99,,2013-01-22 13:03:00,
2013-01-22 05:10:00,21.0,16.0,-100.00,ENE,65,3.0,9.0,80,-99.99,,,-99.99,,2013-01-22 13:10:00,
2013-01-22 05:13:00,21.0,16.0,-100.00,East,95,6.0,10.0,80,-99.99,,,-99.99,,2013-01-22 13:13:00,
2013-01-22 06:03:00,21.0,16.0,-100.00,ENE,65,3.0,9.0,80,-99.99,,,-99.99,,2013-01-22 14:03:00,
2013-01-22 06:10:00,20.0,17.0,-100.00,ESE,110,1.0,3.0,87,-99.99,,,-99.99,,2013-01-22 14:10:00,
2013-01-22 07:03:00,20.0,17.0,-100.00,ESE,110,1.0,3.0,87,-99.99,,,-99.99,,2013-01-22 15:03:00,
2013-01-22 08:10:00,21.0,16.0,-100.00,SE,135,1.0,3.0,80,-99.99,,,-99.99,,2013-01-22 16:10:00,
2013-01-22 09:00:00,21.0,17.0,-100.00,NE,50,1.0,2.0,84,-99.99,,,-99.99,,2013-01-22 17:00:00,
2013-01-22 09:03:00,21.0,16.0,-100.00,SE,135,1.0,3.0,80,-99.99,,,-99.99,,2013-01-22 17:03:00,
2013-01-22 10:10:00,22.0,18.0,-100.00,SE,125,5.0,7.0,84,-99.99,,,-99.99,,2013-01-22 18:10:00,
2013-01-22 11:03:00,22.0,18.0,-100.00,SE,125,5.0,7.0,84,-99.99,,,-99.99,,2013-01-22 19:03:00,
2013-01-22 12:10:00,23.0,17.0,-100.00,SE,145,5.0,6.0,77,-99.99,,,-99.99,,2013-01-22 20:10:00,
2013-01-22 13:03:00,23.0,17.0,-100.00,SE,145,5.0,6.0,77,-99.99,,,-99.99,,2013-01-22 21:03:00,
2013-01-22 14:02:00,23.0,18.0,-100.00,South,170,3.0,6.0,80,-99.99,,,-99.99,,2013-01-22 22:02:00,
2013-01-22 14:12:00,23.0,18.0,-100.00,South,170,3.0,6.0,80,-99.99,,,-99.99,,2013-01-22 22:12:00,
2013-01-22 16:03:00,24.0,19.0,-100.00,SE,125,2.0,5.0,80,-99.99,,,-99.99,,2013-01-23 00:03:00,
2013-01-22 16:12:00,24.0,19.0,-100.00,SE,125,2.0,5.0,80,-99.99,,,-99.99,,2013-01-23 00:12:00,
2013-01-22 17:03:00,24.0,18.0,-100.00,North,5,1.0,2.0,77,-99.99,,,-99.99,,2013-01-23 01:03:00,
2013-01-22 18:03:00,24.0,19.0,-100.00,SE,140,1.0,1.0,80,-99.99,,,-99.99,,2013-01-23 02:03:00,
2013-01-22 18:12:00,24.0,19.0,-100.00,SE,140,1.0,1.0,80,-99.99,,,-99.99,,2013-01-23 02:12:00,
2013-01-22 19:03:00,24.0,19.0,-100.00,North,-999,0.0,0.0,80,-99.99,,,-99.99,,2013-01-23 03:03:00,
2013-01-22 20:03:00,23.0,18.0,-100.00,South,175,0.0,1.0,80,-99.99,,,-99.99,,2013-01-23 04:03:00,
2013-01-22 20:12:00,23.0,18.0,-100.00,South,175,0.0,1.0,80,-99.99,,,-99.99,,2013-01-23 04:12:00,
2013-01-22 21:03:00,24.0,19.0,-100.00,NNE,15,1.0,1.0,80,-99.99,,,-99.99,,2013-01-23 05:03:00,
2013-01-22 22:02:00,24.0,18.0,-100.00,South,175,1.0,2.0,77,-99.99,,,-99.99,,2013-01-23 06:02:00,
2013-01-22 22:12:00,24.0,18.0,-100.00,South,175,1.0,2.0,77,-99.99,,,-99.99,,2013-01-23 06:12:00,
2013-01-22 23:02:00,23.0,18.0,-100.00,North,5,2.0,3.0,80,-99.99,,,-99.99,,2013-01-23 07:02:00,
2013-01-22 23:10:00,24.0,18.0,-100.00,SE,135,2.0,2.0,77,-99.99,,,-99.99,,2013-01-23 07:10:00,